Regional Weather Roundup
Issued by NWS Cleveland, OH

Home | Current Version | Previous Version | Text Only | Print | Product List | Glossary Off
Versions: 1 2 3 4 5 6 7 8 9 10 11 12 13 14 15 16 17 18 19 20 21 22 23 24 25 26 27 28 29 30 31 32 33 34 35 36 37 38 39 40 41 42 43 44 45 46 47 48 49 50

888
ASUS41 KCLE 280410
RWRCLE
OHIO REGIONAL WEATHER ROUNDUP
NATIONAL WEATHER SERVICE CLEVELAND, OH
1200 AM EDT SUN MAY 28 2017

NOTE: "FAIR" INDICATES FEW OR NO CLOUDS BELOW 12,000 FEET WITH NO
SIGNIFICANT WEATHER AND/OR OBSTRUCTIONS TO VISIBILITY.

OHZ001>008-015>018-024>027-034-035-043-044-280500-
   NORTHWEST OHIO

CITY           SKY/WX    TMP DP  RH WIND       PRES   REMARKS
DEFIANCE       CLOUDY    60  54  80 E3        29.85F
FINDLAY        CLOUDY    64  51  62 E7        29.84F
TOLEDO EXPRESS MOCLDY    60  55  83 SE3       29.85F
TOLEDO EXEC    MOCLDY    64  54  69 E6        29.85F
LIMA           CLOUDY    63  57  81 E8        29.85F
$$

OHZ009>014-019>023-028>033-038-089-280500-
   NORTHEAST OHIO

CITY           SKY/WX    TMP DP  RH WIND       PRES   REMARKS
CLE-HOPKINS    MOCLDY    66  51  58 E7        29.89F
CLE-LAKEFRONT  PTCLDY    64  51  62 E7        29.86F
CUY CO. ARPT   NOT AVBL
LORAIN-ELYRIA  CLOUDY    63  50  62 SE5       29.88F
ASHTABULA      CLEAR     53  53 100 CALM      29.91F
AKRON-CANTON   PTCLDY    60  52  74 NE6       29.89F
WOOSTER        PTCLDY    61  54  77 E6        29.89F
MANSFIELD      CLEAR     62  54  74 E5        29.88F
YOUNGSTOWN     MOCLDY    55  50  83 CALM      29.90S
$$

OHZ042-051>053-060>062-070>072-077>081-280500-
  SOUTHWEST OHIO

CITY           SKY/WX    TMP DP  RH WIND       PRES   REMARKS
CINC-COVINGTON CLOUDY    69  64  84 S9        29.84F
CINC-LUNKEN    CLOUDY    70  63  78 VRB5      29.84S
HAMILTON       CLOUDY    72  69  90 W3        29.83F
DAYTON         CLOUDY    69  65  86 NE5       29.84F
WRIGHT-PAT AFB MOCLDY    71  68  92 N3        29.82F
DAYTON GENERAL CLOUDY    71  65  81 NE5       29.82F
WILMINGTON     CLOUDY    69  68  96 SW7       29.82F
$$

OHZ036-037-039>041-045>050-054>059-063>069-073>076-082>088-280500-
  CENTRAL AND SOUTHEAST OHIO

CITY           SKY/WX    TMP DP  RH WIND       PRES   REMARKS
COLUMBUS       CLOUDY    70  65  84 E6        29.83F
OSU AIRPORT    CLOUDY    67  65  93 NE5       29.83F
BOLTON FIELD   CLOUDY    70  66  87 E5        29.84F
RICKENBACK AFB CLOUDY    69  67  93 E5        29.82F
NEWARK         CLOUDY    68  64  87 NE5       29.84F
MARION         PTCLDY    63  57  81 E8        29.85F
LANCASTER      CLOUDY    71  65  81 E5        29.84F
ZANESVILLE     CLOUDY    68  64  87 E5        29.85F
NEW PHILLY     NOT AVBL
$$




USA.gov is the U.S. government's official web portal to all federal, state and local government web resources and services.